QPF
0.05 0.06 0.05 0.05 0.04 0.06 0.11 0.12 0.09 0.10 0.13 0.10 0.06 0.06 0.04 0.02 0.01 0.01 0.03 0.03 0.02 0.02 0.03 0.03 0.03 0.03 0.04 0.04 0.04 0.04 0.04 0.04 0.04 0.03 0.02 0.02 0.02 0.01 0.01 0.01 0.01 0.02 0.02
0.09 0.09 0.10 0.11 0.09 0.11 0.14 0.15 0.12 0.15 0.14 0.16 0.11 0.08 0.06 0.04 0.04 0.03 0.02 0.03 0.04 0.02 0.02 0.03 0.03 0.03 0.03 0.04 0.04 0.04 0.04 0.04 0.03 0.02 0.01 0.01 0.01 0.01 0.01 0.01 0.01 0.01 0.01
0.15 0.14 0.14 0.14 0.15 0.16 0.18 0.15 0.16 0.18 0.15 0.16 0.12 0.10 0.10 0.08 0.05 0.05 0.04 0.05 0.05 0.04 0.03 0.03 0.04 0.03 0.03 0.04 0.04 0.04 0.03 0.02 0.02 0.01 0.01 0.01 0.01 0.01 0.01 0.01 0.01 0.01 0.00
0.13 0.14 0.14 0.14 0.19 0.19 0.18 0.17 0.18 0.20 0.20 0.20 0.19 0.14 0.13 0.13 0.08 0.05 0.05 0.04 0.04 0.03 0.03 0.05 0.05 0.04 0.05 0.04 0.04 0.04 0.03 0.02 0.01 0.01 0.01 0.00 0.01 0.01 0.01 0.01 0.01 0.01 0.00
0.08 0.10 0.10 0.11 0.12 0.13 0.13 0.14 0.22 0.20 0.21 0.22 0.19 0.15 0.12 0.10 0.08 0.05 0.04 0.03 0.03 0.03 0.02 0.03 0.05 0.04 0.05 0.05 0.04 0.05 0.04 0.03 0.02 0.02 0.02 0.01 0.01 0.01 0.01 0.01 0.01 0.01 0.00
0.03 0.04 0.04 0.05 0.06 0.07 0.07 0.09 0.12 0.13 0.13 0.12 0.10 0.11 0.12 0.09 0.08 0.07 0.05 0.03 0.02 0.02 0.02 0.02 0.03 0.04 0.05 0.04 0.04 0.04 0.04 0.03 0.03 0.02 0.03 0.03 0.02 0.02 0.01 0.01 0.01 0.01 0.01
0.00 0.00 0.01 0.01 0.02 0.03 0.04 0.05 0.06 0.06 0.06 0.09 0.09 0.07 0.08 0.08 0.08 0.07 0.06 0.05 0.04 0.03 0.02 0.02 0.01 0.03 0.08 0.09 0.06 0.05 0.04 0.04 0.03 0.02 0.03 0.03 0.03 0.03 0.01 0.01 0.01 0.01 0.01
0.00 0.00 0.00 0.00 0.00 0.01 0.01 0.02 0.03 0.03 0.03 0.07 0.08 0.07 0.06 0.07 0.05 0.03 0.03 0.03 0.02 0.03 0.03 0.02 0.03 0.05 0.06 0.11 0.12 0.06 0.05 0.05 0.05 0.04 0.03 0.03 0.04 0.04 0.03 0.02 0.02 0.02 0.01
0.00 0.00 0.00 0.00 0.00 0.00 0.00 0.01 0.02 0.02 0.03 0.04 0.07 0.08 0.06 0.05 0.05 0.04 0.05 0.04 0.05 0.06 0.04 0.03 0.03 0.06 0.09 0.11 0.14 0.11 0.08 0.05 0.05 0.05 0.05 0.04 0.04 0.04 0.05 0.04 0.03 0.02 0.02
0.00 0.00 0.00 0.00 0.00 0.00 0.00 0.01 0.01 0.02 0.03 0.02 0.05 0.07 0.07 0.08 0.08 0.05 0.07 0.07 0.09 0.09 0.07 0.05 0.05 0.07 0.10 0.14 0.15 0.14 0.11 0.07 0.05 0.05 0.06 0.06 0.04 0.04 0.04 0.06 0.07 0.05 0.03
0.00 0.00 0.00 0.00 0.00 0.00 0.01 0.01 0.01 0.01 0.02 0.02 0.03 0.05 0.07 0.09 0.10 0.08 0.06 0.08 0.09 0.09 0.09 0.08 0.08 0.08 0.11 0.17 0.21 0.16 0.15 0.12 0.08 0.05 0.04 0.06 0.06 0.05 0.04 0.06 0.11 0.14 0.12
0.00 0.00 0.00 0.00 0.00 0.00 0.01 0.01 0.01 0.01 0.02 0.03 0.04 0.05 0.06 0.06 0.08 0.11 0.09 0.10 0.11 0.13 0.14 0.12 0.11 0.11 0.13 0.16 0.13 0.17 0.12 0.08 0.07 0.05 0.04 0.04 0.05 0.06 0.07 0.09 0.12 0.16 0.18
0.00 0.01 0.01 0.01 0.01 0.01 0.01 0.01 0.01 0.01 0.02 0.03 0.04 0.06 0.07 0.06 0.09 0.12 0.12 0.12 0.13 0.15 0.16 0.17 0.15 0.16 0.16 0.17 0.12 0.09 0.06 0.05 0.05 0.03 0.03 0.04 0.04 0.05 0.06 0.07 0.09 0.12 0.15
0.02 0.02 0.01 0.01 0.01 0.01 0.01 0.01 0.01 0.01 0.02 0.02 0.03 0.06 0.07 0.07 0.10 0.11 0.12 0.14 0.14 0.14 0.16 0.15 0.15 0.15 0.18 0.18 0.12 0.08 0.05 0.03 0.03 0.02 0.02 0.03 0.03 0.04 0.04 0.05 0.07 0.08 0.10
0.05 0.04 0.04 0.03 0.02 0.01 0.01 0.01 0.02 0.02 0.02 0.03 0.03 0.05 0.07 0.08 0.11 0.12 0.14 0.16 0.17 0.16 0.15 0.17 0.15 0.14 0.15 0.13 0.09 0.09 0.04 0.02 0.01 0.01 0.01 0.01 0.02 0.03 0.03 0.04 0.05 0.06 0.08
0.09 0.07 0.06 0.05 0.03 0.02 0.01 0.01 0.02 0.02 0.02 0.03 0.04 0.05 0.07 0.08 0.10 0.10 0.13 0.16 0.19 0.21 0.18 0.16 0.13 0.11 0.12 0.10 0.08 0.07 0.03 0.01 0.01 0.00 0.00 0.00 0.01 0.01 0.02 0.03 0.03 0.04 0.07
0.07 0.07 0.06 0.05 0.04 0.03 0.02 0.02 0.02 0.02 0.02 0.03 0.04 0.06 0.07 0.09 0.10 0.10 0.12 0.15 0.17 0.20 0.15 0.12 0.13 0.11 0.12 0.11 0.08 0.06 0.03 0.02 0.01 0.00 0.00 0.00 0.00 0.01 0.01 0.02 0.02 0.03 0.03
0.07 0.07 0.07 0.06 0.05 0.04 0.03 0.03 0.02 0.01 0.02 0.04 0.05 0.07 0.08 0.09 0.11 0.11 0.12 0.14 0.15 0.19 0.16 0.11 0.10 0.11 0.11 0.12 0.09 0.08 0.05 0.04 0.02 0.01 0.00 0.00 0.00 0.00 0.01 0.02 0.02 0.03 0.04
0.07 0.07 0.08 0.07 0.06 0.05 0.04 0.03 0.02 0.02 0.02 0.03 0.04 0.06 0.07 0.07 0.09 0.09 0.11 0.11 0.12 0.16 0.17 0.14 0.09 0.10 0.09 0.09 0.08 0.07 0.06 0.05 0.02 0.01 0.00 0.00 0.00 0.00 0.00 0.01 0.01 0.02 0.02
0.06 0.07 0.08 0.08 0.08 0.06 0.05 0.04 0.03 0.03 0.03 0.03 0.03 0.04 0.05 0.06 0.07 0.07 0.08 0.09 0.10 0.13 0.15 0.13 0.11 0.09 0.09 0.09 0.08 0.08 0.08 0.06 0.03 0.01 0.00 0.00 0.00 0.00 0.00 0.00 0.01 0.01 0.01
0.04 0.06 0.08 0.08 0.09 0.08 0.06 0.05 0.05 0.04 0.03 0.03 0.03 0.03 0.04 0.05 0.05 0.06 0.06 0.06 0.07 0.09 0.10 0.10 0.09 0.09 0.09 0.10 0.09 0.08 0.07 0.06 0.05 0.03 0.02 0.01 0.01 0.01 0.00 0.00 0.00 0.00 0.00
0.03 0.05 0.06 0.08 0.09 0.09 0.07 0.04 0.04 0.04 0.04 0.04 0.04 0.04 0.04 0.04 0.04 0.04 0.05 0.06 0.07 0.07 0.07 0.08 0.09 0.10 0.11 0.09 0.09 0.08 0.06 0.04 0.05 0.05 0.04 0.04 0.04 0.03 0.01 0.00 0.00 0.00 0.00
0.03 0.04 0.05 0.07 0.09 0.10 0.07 0.04 0.03 0.04 0.04 0.04 0.05 0.04 0.03 0.04 0.04 0.03 0.04 0.04 0.05 0.06 0.06 0.07 0.08 0.09 0.09 0.10 0.09 0.08 0.06 0.05 0.03 0.03 0.04 0.04 0.03 0.02 0.01 0.00 0.00 0.00 0.00
0.04 0.05 0.05 0.07 0.10 0.12 0.10 0.08 0.05 0.04 0.06 0.06 0.05 0.04 0.03 0.03 0.04 0.03 0.03 0.02 0.02 0.03 0.03 0.04 0.05 0.06 0.07 0.09 0.08 0.07 0.06 0.04 0.02 0.02 0.03 0.03 0.02 0.02 0.01 0.00 0.00 0.00 0.00
0.05 0.04 0.05 0.07 0.10 0.13 0.13 0.10 0.08 0.08 0.09 0.09 0.08 0.05 0.04 0.04 0.04 0.03 0.03 0.02 0.01 0.01 0.02 0.02 0.04 0.04 0.04 0.05 0.05 0.04 0.04 0.03 0.02 0.02 0.02 0.02 0.02 0.02 0.02 0.01 0.00 0.00 0.00
0.06 0.04 0.04 0.08 0.11 0.14 0.15 0.14 0.12 0.11 0.13 0.13 0.13 0.08 0.06 0.05 0.03 0.02 0.03 0.02 0.01 0.01 0.01 0.01 0.02 0.03 0.02 0.02 0.03 0.03 0.02 0.01 0.01 0.01 0.01 0.01 0.01 0.02 0.03 0.02 0.01 0.01 0.01
MSLP
1010.80 1010.92 1010.97 1010.98 1010.99 1011.02 1011.11 1011.23 1011.39 1011.53 1011.64 1011.70 1011.69 1011.65 1011.59 1011.55 1011.55 1011.63 1011.76 1011.95 1012.16 1012.36 1012.54 1012.68 1012.80 1012.91 1013.04 1013.19 1013.40 1013.66 1013.96 1014.29 1014.63 1014.99 1015.33 1015.67 1015.99 1016.32 1016.63 1016.95 1017.26 1017.57 1017.87
1010.56 1010.72 1010.82 1010.86 1010.88 1010.90 1010.94 1011.00 1011.08 1011.16 1011.22 1011.24 1011.23 1011.19 1011.14 1011.12 1011.13 1011.20 1011.33 1011.49 1011.67 1011.85 1012.01 1012.15 1012.27 1012.37 1012.49 1012.63 1012.81 1013.03 1013.29 1013.58 1013.91 1014.25 1014.60 1014.96 1015.31 1015.67 1016.01 1016.35 1016.69 1017.01 1017.33
1010.46 1010.65 1010.79 1010.86 1010.90 1010.91 1010.91 1010.92 1010.93 1010.95 1010.95 1010.93 1010.90 1010.85 1010.80 1010.77 1010.76 1010.80 1010.88 1011.00 1011.13 1011.28 1011.41 1011.54 1011.65 1011.76 1011.88 1012.01 1012.17 1012.36 1012.59 1012.85 1013.14 1013.47 1013.82 1014.18 1014.56 1014.95 1015.33 1015.70 1016.06 1016.41 1016.75
1010.43 1010.64 1010.81 1010.91 1010.96 1010.97 1010.95 1010.92 1010.88 1010.84 1010.79 1010.73 1010.67 1010.60 1010.53 1010.47 1010.43 1010.42 1010.44 1010.48 1010.56 1010.65 1010.75 1010.86 1010.97 1011.09 1011.21 1011.34 1011.49 1011.66 1011.86 1012.09 1012.36 1012.67 1013.01 1013.38 1013.77 1014.18 1014.59 1014.99 1015.39 1015.77 1016.15
1010.40 1010.62 1010.80 1010.94 1011.01 1011.02 1010.99 1010.93 1010.85 1010.76 1010.67 1010.58 1010.49 1010.40 1010.30 1010.21 1010.13 1010.05 1010.00 1009.98 1009.98 1010.01 1010.07 1010.15 1010.25 1010.37 1010.49 1010.63 1010.78 1010.94 1011.13 1011.34 1011.58 1011.87 1012.19 1012.56 1012.95 1013.38 1013.81 1014.24 1014.67 1015.09 1015.50
1010.32 1010.54 1010.74 1010.89 1010.98 1011.00 1010.97 1010.90 1010.80 1010.68 1010.56 1010.45 1010.33 1010.22 1010.11 1009.98 1009.85 1009.73 1009.61 1009.51 1009.44 1009.40 1009.41 1009.46 1009.54 1009.65 1009.79 1009.93 1010.08 1010.24 1010.42 1010.61 1010.84 1011.10 1011.41 1011.76 1012.15 1012.57 1013.01 1013.46 1013.91 1014.35 1014.80
1010.17 1010.38 1010.58 1010.75 1010.86 1010.91 1010.88 1010.81 1010.69 1010.56 1010.43 1010.30 1010.18 1010.05 1009.93 1009.79 1009.63 1009.46 1009.29 1009.13 1008.99 1008.90 1008.85 1008.86 1008.91 1009.01 1009.14 1009.29 1009.44 1009.60 1009.77 1009.96 1010.16 1010.40 1010.68 1011.01 1011.37 1011.77 1012.19 1012.64 1013.09 1013.56 1014.02
1009.96 1010.16 1010.37 1010.55 1010.68 1010.74 1010.73 1010.66 1010.54 1010.41 1010.27 1010.13 1010.01 1009.89 1009.77 1009.63 1009.46 1009.27 1009.07 1008.86 1008.68 1008.53 1008.43 1008.39 1008.42 1008.49 1008.61 1008.75 1008.91 1009.07 1009.23 1009.41 1009.59 1009.80 1010.05 1010.33 1010.65 1011.00 1011.39 1011.81 1012.24 1012.70 1013.17
1009.74 1009.93 1010.13 1010.32 1010.46 1010.54 1010.54 1010.47 1010.36 1010.23 1010.09 1009.96 1009.85 1009.74 1009.63 1009.50 1009.35 1009.16 1008.94 1008.71 1008.49 1008.31 1008.17 1008.09 1008.08 1008.14 1008.24 1008.37 1008.52 1008.68 1008.83 1008.99 1009.16 1009.33 1009.53 1009.76 1010.01 1010.30 1010.63 1010.98 1011.37 1011.80 1012.26
1009.54 1009.72 1009.92 1010.11 1010.25 1010.34 1010.34 1010.28 1010.18 1010.04 1009.90 1009.78 1009.67 1009.58 1009.49 1009.38 1009.24 1009.07 1008.86 1008.63 1008.41 1008.20 1008.04 1007.94 1007.90 1007.93 1008.02 1008.14 1008.28 1008.44 1008.59 1008.74 1008.87 1009.01 1009.16 1009.32 1009.49 1009.70 1009.94 1010.21 1010.53 1010.90 1011.32
1009.41 1009.56 1009.75 1009.93 1010.07 1010.15 1010.16 1010.10 1009.98 1009.84 1009.70 1009.58 1009.47 1009.39 1009.31 1009.22 1009.10 1008.95 1008.76 1008.55 1008.34 1008.14 1007.97 1007.87 1007.83 1007.85 1007.93 1008.05 1008.20 1008.35 1008.50 1008.63 1008.75 1008.86 1008.95 1009.03 1009.13 1009.24 1009.37 1009.55 1009.79 1010.08 1010.45
1009.33 1009.46 1009.62 1009.78 1009.90 1009.97 1009.96 1009.89 1009.77 1009.62 1009.46 1009.32 1009.21 1009.11 1009.03 1008.95 1008.85 1008.72 1008.56 1008.38 1008.19 1008.03 1007.89 1007.81 1007.79 1007.83 1007.93 1008.06 1008.22 1008.39 1008.54 1008.68 1008.78 1008.86 1008.90 1008.93 1008.94 1008.96 1009.00 1009.08 1009.21 1009.43 1009.72
1009.30 1009.39 1009.51 1009.64 1009.73 1009.77 1009.74 1009.65 1009.51 1009.34 1009.16 1008.99 1008.85 1008.73 1008.63 1008.53 1008.43 1008.32 1008.19 1008.05 1007.91 1007.79 1007.72 1007.69 1007.72 1007.81 1007.96 1008.13 1008.33 1008.52 1008.70 1008.85 1008.96 1009.02 1009.03 1009.01 1008.97 1008.91 1008.86 1008.85 1008.90 1009.02 1009.25
1009.29 1009.33 1009.39 1009.46 1009.51 1009.51 1009.46 1009.34 1009.18 1008.98 1008.77 1008.57 1008.38 1008.22 1008.08 1007.96 1007.84 1007.73 1007.62 1007.52 1007.45 1007.40 1007.41 1007.47 1007.59 1007.76 1007.98 1008.22 1008.47 1008.71 1008.93 1009.11 1009.24 1009.31 1009.32 1009.28 1009.21 1009.10 1009.00 1008.92 1008.89 1008.95 1009.10
1009.27 1009.24 1009.23 1009.24 1009.23 1009.19 1009.10 1008.96 1008.77 1008.55 1008.31 1008.07 1007.84 1007.62 1007.43 1007.26 1007.12 1006.99 1006.90 1006.84 1006.83 1006.88 1006.98 1007.15 1007.38 1007.65 1007.97 1008.30 1008.62 1008.93 1009.21 1009.43 1009.60 1009.70 1009.74 1009.71 1009.64 1009.53 1009.41 1009.29 1009.22 1009.23 1009.32
1009.19 1009.09 1009.01 1008.94 1008.87 1008.78 1008.66 1008.50 1008.30 1008.06 1007.80 1007.53 1007.25 1006.99 1006.74 1006.52 1006.34 1006.20 1006.11 1006.09 1006.15 1006.28 1006.49 1006.78 1007.13 1007.52 1007.94 1008.36 1008.77 1009.15 1009.49 1009.77 1009.99 1010.14 1010.23 1010.25 1010.22 1010.14 1010.04 1009.94 1009.86 1009.84 1009.89
1009.06 1008.87 1008.72 1008.58 1008.45 1008.32 1008.17 1008.00 1007.79 1007.56 1007.29 1007.00 1006.70 1006.40 1006.11 1005.84 1005.62 1005.46 1005.38 1005.40 1005.51 1005.73 1006.04 1006.44 1006.90 1007.41 1007.92 1008.43 1008.92 1009.36 1009.75 1010.08 1010.36 1010.57 1010.73 1010.82 1010.87 1010.86 1010.82 1010.77 1010.72 1010.70 1010.75
1008.85 1008.60 1008.37 1008.17 1008.00 1007.83 1007.67 1007.49 1007.30 1007.08 1006.83 1006.55 1006.25 1005.93 1005.62 1005.33 1005.08 1004.91 1004.84 1004.88 1005.04 1005.33 1005.73 1006.22 1006.78 1007.36 1007.96 1008.53 1009.06 1009.54 1009.97 1010.34 1010.67 1010.94 1011.17 1011.35 1011.49 1011.58 1011.64 1011.66 1011.67 1011.69 1011.75
1008.56 1008.26 1007.98 1007.74 1007.52 1007.34 1007.17 1007.01 1006.85 1006.67 1006.46 1006.21 1005.93 1005.63 1005.32 1005.03 1004.79 1004.62 1004.56 1004.63 1004.83 1005.17 1005.63 1006.18 1006.79 1007.43 1008.06 1008.66 1009.21 1009.70 1010.14 1010.53 1010.88 1011.21 1011.50 1011.77 1012.01 1012.21 1012.37 1012.50 1012.59 1012.67 1012.75
1008.18 1007.85 1007.55 1007.27 1007.04 1006.85 1006.69 1006.56 1006.44 1006.31 1006.16 1005.98 1005.76 1005.50 1005.23 1004.97 1004.75 1004.61 1004.57 1004.66 1004.89 1005.26 1005.75 1006.33 1006.97 1007.62 1008.25 1008.84 1009.37 1009.84 1010.26 1010.64 1011.00 1011.35 1011.69 1012.04 1012.37 1012.68 1012.95 1013.18 1013.37 1013.51 1013.63
1007.72 1007.39 1007.08 1006.79 1006.55 1006.36 1006.22 1006.12 1006.05 1005.99 1005.91 1005.81 1005.67 1005.49 1005.29 1005.09 1004.92 1004.82 1004.82 1004.94 1005.20 1005.58 1006.08 1006.66 1007.28 1007.91 1008.51 1009.05 1009.53 1009.96 1010.33 1010.68 1011.02 1011.38 1011.75 1012.15 1012.55 1012.94 1013.31 1013.64 1013.91 1014.13 1014.30
1007.17 1006.86 1006.56 1006.28 1006.04 1005.86 1005.74 1005.67 1005.65 1005.66 1005.66 1005.65 1005.61 1005.53 1005.42 1005.31 1005.22 1005.18 1005.23 1005.38 1005.66 1006.05 1006.54 1007.09 1007.68 1008.26 1008.80 1009.28 1009.70 1010.06 1010.37 1010.67 1010.98 1011.32 1011.70 1012.12 1012.57 1013.03 1013.47 1013.87 1014.22 1014.49 1014.71
1006.55 1006.28 1005.99 1005.73 1005.50 1005.33 1005.23 1005.19 1005.22 1005.28 1005.37 1005.45 1005.50 1005.53 1005.53 1005.52 1005.52 1005.56 1005.66 1005.86 1006.16 1006.55 1007.02 1007.55 1008.09 1008.62 1009.09 1009.51 1009.86 1010.15 1010.40 1010.65 1010.92 1011.23 1011.60 1012.02 1012.49 1012.98 1013.46 1013.90 1014.30 1014.62 1014.87
1005.88 1005.65 1005.40 1005.15 1004.94 1004.78 1004.69 1004.67 1004.73 1004.84 1004.99 1005.15 1005.31 1005.44 1005.55 1005.64 1005.74 1005.86 1006.03 1006.28 1006.60 1007.00 1007.46 1007.95 1008.45 1008.92 1009.35 1009.70 1010.00 1010.24 1010.45 1010.65 1010.88 1011.16 1011.51 1011.91 1012.37 1012.85 1013.34 1013.80 1014.21 1014.56 1014.83
1005.20 1005.01 1004.78 1004.56 1004.36 1004.21 1004.13 1004.13 1004.20 1004.35 1004.55 1004.78 1005.01 1005.23 1005.44 1005.63 1005.82 1006.03 1006.27 1006.56 1006.91 1007.32 1007.77 1008.24 1008.71 1009.15 1009.54 1009.86 1010.12 1010.33 1010.51 1010.69 1010.90 1011.16 1011.47 1011.85 1012.28 1012.73 1013.20 1013.65 1014.05 1014.40 1014.68
1004.53 1004.37 1004.18 1003.97 1003.79 1003.65 1003.58 1003.58 1003.68 1003.85 1004.08 1004.35 1004.64 1004.93 1005.22 1005.50 1005.77 1006.05 1006.36 1006.70 1007.08 1007.50 1007.96 1008.42 1008.87 1009.29 1009.66 1009.97 1010.22 1010.43 1010.61 1010.79 1010.99 1011.23 1011.52 1011.86 1012.25 1012.66 1013.09 1013.50 1013.87 1014.20 1014.48
Thickness
5775 5774 5772 5770 5767 5766 5765 5762 5762 5762 5760 5760 5760 5761 5761 5762 5763 5763 5763 5762 5760 5758 5757 5756 5754 5753 5752 5752 5751 5751 5750 5750 5749 5748 5746 5744 5742 5740 5738 5737 5735 5733 5731
5772 5768 5766 5763 5762 5761 5760 5759 5758 5757 5756 5756 5756 5756 5756 5758 5758 5758 5758 5758 5757 5756 5755 5754 5753 5752 5751 5750 5750 5750 5750 5750 5749 5749 5748 5746 5744 5742 5740 5738 5737 5735 5733
5767 5764 5761 5759 5758 5758 5756 5755 5754 5753 5752 5752 5752 5752 5752 5753 5753 5754 5753 5753 5753 5752 5752 5751 5750 5750 5749 5749 5749 5749 5749 5749 5749 5749 5749 5747 5746 5744 5742 5740 5738 5737 5735
5763 5760 5757 5756 5755 5754 5753 5751 5750 5748 5747 5746 5746 5747 5749 5749 5749 5750 5749 5749 5749 5749 5749 5748 5747 5747 5746 5746 5746 5747 5748 5748 5748 5749 5748 5748 5746 5745 5744 5742 5740 5738 5736
5759 5757 5754 5754 5753 5751 5750 5749 5749 5746 5743 5742 5742 5743 5745 5745 5746 5746 5746 5747 5747 5746 5746 5746 5745 5745 5744 5744 5744 5745 5746 5746 5747 5748 5748 5747 5747 5745 5744 5743 5741 5739 5737
5755 5752 5751 5750 5750 5748 5746 5745 5743 5743 5741 5740 5740 5742 5743 5744 5744 5744 5744 5745 5745 5745 5744 5744 5743 5742 5742 5742 5742 5743 5743 5744 5745 5746 5747 5747 5746 5745 5744 5743 5741 5740 5738
5750 5748 5746 5745 5745 5743 5742 5741 5740 5737 5737 5738 5734 5733 5737 5741 5742 5743 5743 5742 5742 5742 5741 5742 5741 5740 5740 5739 5739 5739 5740 5741 5743 5744 5744 5745 5745 5744 5743 5742 5741 5740 5738
5745 5744 5742 5740 5739 5738 5737 5737 5735 5732 5732 5733 5727 5723 5724 5729 5735 5740 5739 5738 5738 5738 5738 5739 5738 5738 5738 5737 5735 5735 5736 5738 5740 5740 5741 5742 5743 5743 5742 5741 5740 5739 5738
5741 5739 5737 5735 5734 5732 5732 5731 5730 5728 5725 5726 5725 5719 5713 5715 5721 5729 5732 5733 5733 5732 5733 5734 5735 5736 5734 5733 5731 5731 5732 5734 5735 5736 5737 5739 5740 5740 5740 5739 5738 5738 5737
5737 5735 5733 5731 5729 5728 5727 5726 5727 5723 5721 5719 5721 5720 5717 5714 5707 5712 5719 5724 5725 5726 5727 5729 5731 5732 5731 5730 5728 5728 5728 5729 5729 5731 5732 5734 5736 5737 5737 5737 5736 5736 5735
5733 5732 5730 5728 5725 5723 5723 5722 5720 5719 5717 5716 5715 5714 5713 5711 5708 5702 5704 5710 5714 5718 5721 5723 5725 5726 5727 5726 5725 5723 5722 5723 5724 5725 5727 5729 5731 5732 5732 5733 5734 5734 5733
5727 5728 5727 5724 5721 5719 5718 5717 5716 5715 5714 5713 5711 5710 5707 5705 5703 5701 5698 5701 5703 5708 5713 5716 5718 5719 5720 5720 5719 5717 5715 5716 5717 5718 5721 5723 5725 5726 5727 5729 5730 5730 5731
5717 5719 5719 5716 5714 5713 5713 5712 5711 5710 5710 5709 5708 5707 5706 5705 5704 5701 5697 5697 5698 5702 5705 5709 5712 5714 5713 5712 5711 5710 5709 5709 5710 5711 5713 5715 5717 5719 5721 5723 5725 5726 5727
5707 5709 5709 5708 5708 5707 5707 5706 5706 5706 5707 5706 5706 5705 5704 5703 5703 5700 5697 5693 5691 5694 5697 5699 5704 5707 5707 5705 5703 5702 5700 5701 5702 5703 5704 5706 5709 5711 5714 5716 5718 5720 5721
5695 5697 5698 5698 5699 5699 5700 5699 5699 5700 5701 5702 5702 5702 5701 5701 5701 5700 5698 5694 5688 5685 5688 5692 5695 5699 5700 5698 5696 5695 5693 5692 5693 5694 5695 5697 5699 5702 5705 5707 5709 5711 5713
5682 5684 5686 5687 5689 5691 5692 5693 5693 5694 5695 5696 5697 5697 5697 5698 5698 5698 5697 5695 5692 5687 5685 5689 5689 5691 5692 5691 5688 5687 5685 5684 5685 5685 5687 5688 5690 5693 5695 5696 5699 5701 5703
5668 5671 5674 5676 5678 5681 5683 5685 5686 5688 5689 5690 5692 5693 5693 5693 5693 5694 5693 5692 5690 5687 5682 5682 5683 5684 5684 5682 5679 5678 5677 5676 5674 5676 5677 5678 5680 5682 5684 5686 5688 5690 5692
5651 5656 5660 5664 5668 5671 5674 5676 5678 5681 5682 5683 5685 5686 5687 5689 5688 5689 5688 5688 5687 5685 5681 5676 5675 5675 5675 5674 5672 5671 5670 5667 5666 5665 5667 5668 5669 5671 5672 5674 5676 5678 5680
5635 5639 5644 5650 5655 5659 5663 5667 5670 5673 5675 5677 5679 5679 5681 5681 5681 5682 5682 5683 5682 5682 5678 5673 5669 5668 5667 5666 5664 5663 5662 5659 5658 5656 5656 5657 5658 5660 5661 5663 5664 5666 5667
5618 5623 5628 5633 5639 5646 5651 5656 5660 5663 5666 5669 5671 5672 5674 5674 5675 5676 5676 5677 5677 5675 5672 5667 5664 5661 5659 5658 5657 5654 5651 5651 5650 5650 5648 5647 5648 5649 5650 5651 5652 5654 5655
5601 5605 5610 5616 5622 5629 5637 5644 5648 5652 5655 5659 5662 5664 5665 5666 5667 5669 5670 5670 5669 5667 5664 5661 5657 5653 5651 5649 5648 5647 5645 5644 5643 5642 5640 5639 5640 5640 5639 5640 5642 5643 5645
5582 5585 5590 5595 5602 5611 5619 5625 5631 5638 5643 5647 5651 5653 5655 5657 5658 5660 5661 5662 5662 5660 5657 5655 5651 5647 5644 5644 5643 5642 5640 5638 5635 5636 5636 5634 5634 5632 5632 5632 5632 5634 5636
5561 5565 5569 5574 5582 5591 5598 5606 5614 5622 5630 5636 5640 5643 5647 5649 5650 5650 5650 5651 5651 5652 5652 5650 5646 5643 5640 5639 5638 5636 5634 5633 5632 5633 5632 5627 5627 5625 5624 5624 5625 5626 5628
5544 5546 5551 5556 5564 5572 5579 5587 5596 5606 5615 5623 5629 5633 5637 5639 5641 5641 5642 5641 5641 5640 5642 5642 5639 5637 5635 5634 5632 5630 5629 5628 5628 5628 5628 5622 5621 5619 5618 5617 5618 5620 5621
5534 5535 5539 5544 5550 5557 5563 5571 5578 5590 5601 5610 5618 5623 5627 5629 5630 5632 5632 5631 5630 5629 5630 5630 5630 5628 5627 5626 5625 5624 5622 5620 5618 5619 5622 5620 5617 5615 5613 5612 5612 5613 5614
5528 5530 5533 5536 5540 5546 5551 5557 5564 5576 5587 5598 5606 5612 5616 5619 5619 5622 5623 5623 5621 5620 5621 5619 5618 5618 5618 5618 5618 5618 5618 5616 5614 5613 5616 5617 5615 5614 5609 5609 5609 5608 5608